[[{"header":{"parameterUnit":"m.s-1","parameterCategory":1,"la1":30.2992,"la2":30.254,"lo1":-89.0895,"lo2":-89.0443,"dy":0.0025,"dx":0.0025,"nx":19,"ny":19,"refTime":"2026-04-02T09:00:00:Z","depth":0,"parameterNumber":2,"parameterNumberName":"U-component_of_WINDS"},"data":[0,0,0,-4.4714,-4.4718,-4.4869,-4.487,-4.5061,-4.5063,0,0,0,0,0,0,0,0,0,0,0,-4.4669,-4.467,-4.4714,-4.4718,-4.4869,-4.487,-4.5061,-4.5063,0,0,0,0,0,0,0,0,0,0,0,-4.4668,-4.467,-4.4672,-4.4719,-4.4869,-4.487,-4.506,-4.4947,0,0,0,0,0,0,0,0,0,0,-4.48,-4.4758,-4.467,-4.4672,-4.4719,-4.4869,-4.487,-4.4941,-4.4954,-4.4992,0,-4.5026,0,-4.5048,-4.5075,-4.5076,0,0,0,-4.4718,-4.4747,-4.4789,-4.4672,-4.4721,-4.4869,-4.4801,-4.4948,-4.4962,-4.5008,-4.5029,-4.5036,-4.5051,-4.5077,-4.5078,-4.5298,-4.5299,0,0,-4.471,-4.4696,-4.4779,-4.4798,-4.4776,-4.4796,-4.4806,-4.4957,-4.4978,-4.503,-4.5041,-4.5054,-4.5078,-4.5079,-4.5297,-4.5298,0,0,0,-4.4686,-4.469,-4.4728,-4.479,-4.4818,-4.4801,-4.4812,-4.4971,-4.4985,-4.5043,-4.5056,-4.5079,-4.5081,-4.5296,-4.5297,-4.5333,0,0,0,-4.4681,-4.4676,-4.4724,-4.4717,-4.4815,-4.4897,-4.4823,-4.4974,-4.4992,-4.5055,-4.5079,-4.5083,-4.5294,-4.5296,-4.533,-4.5352,0,0,0,-4.4659,-4.4674,-4.4695,-4.4716,-4.4781,-4.4895,-4.4917,-4.4978,-4.5,-4.5076,-4.5084,-4.5294,-4.5296,-4.5327,-4.5347,-4.5404,0,0,0,-4.4632,-4.4726,-4.4696,-4.4805,-4.478,-4.4917,-4.4916,-4.5019,-4.5088,-4.508,-4.5295,-4.5297,-4.5326,-4.5344,-4.5401,-4.5449,-4.5468,0,0,-4.4742,-4.4739,-4.4804,-4.4782,-4.492,-4.4895,-4.5039,-4.5115,-4.5135,-4.5242,-4.5248,-4.5331,-4.5347,-4.5404,-4.5584,-4.5599,0,0,0,-4.4834,-4.4881,-4.4921,-4.4987,-4.5048,-4.5102,-4.5158,-4.5187,-4.5278,-4.5188,-4.5369,-4.5379,-4.5413,-4.5436,-4.5449,-4.5478,-4.5308,-4.5308,-4.5307,-4.4968,-4.4989,-4.5098,-4.5137,-4.5201,-4.5259,-4.5312,-4.536,-4.5362,-4.5405,-4.5435,-4.5542,-4.5569,-4.5579,-4.5609,-4.5464,-4.5464,-4.5465,-4.5465,-4.513,-4.5198,-4.5199,-4.5305,-4.5326,-4.5415,-4.5474,-4.5473,-4.5558,-4.5521,-4.5552,-4.5507,-4.5595,-4.5622,-4.5468,-4.5467,-4.5467,-4.5467,-4.5466,-4.5218,-4.5254,-4.5288,-4.5385,-4.5458,-4.5494,-4.5576,-4.5592,-4.5609,-4.564,-4.5673,-4.5672,-4.5672,-4.5655,-4.5655,-4.5656,-4.5656,-4.5656,-4.5656,-4.5296,-4.5333,-4.54,-4.5473,-4.5517,-4.5577,-4.5636,-4.5679,-4.5732,-4.5737,-4.5738,-4.5734,-4.5601,-4.5565,-4.5662,-4.5661,-4.566,-4.566,-4.5659,-4.5448,-4.5416,-4.552,-4.5564,-4.565,-4.572,-4.5741,-4.5829,-4.5867,-4.5907,-4.5898,-4.5797,-4.5794,-4.5783,-4.5754,-4.5894,-4.5894,-4.5894,-4.5894,-4.5521,-4.5522,-4.5631,-4.57,-4.577,-4.5799,-4.5914,-4.596,-4.6003,-4.6028,-4.6011,-4.5974,-4.5963,-4.5967,-4.5953,-4.5925,-4.6106,-4.6106,-4.6106,-4.5615,-4.5623,-4.5718,-4.576,-4.5829,-4.5887,-4.5995,-4.6074,-4.6116,-4.6115,-4.6047,-4.6039,-4.598,-4.596,-4.5955,-4.5933,-4.5883,0,0]},{"header":{"parameterUnit":"m.s-1","parameterCategory":1,"la1":30.2992,"la2":30.254,"lo1":-89.0895,"lo2":-89.0443,"dy":0.0025,"dx":0.0025,"nx":19,"ny":19,"refTime":"2026-04-02T09:00:00:Z","depth":0,"parameterNumber":3,"parameterNumberName":"V-component_of_WINDS"},"data":[0,0,0,4.4288,4.429,4.4398,4.4398,4.4541,4.4542,0,0,0,0,0,0,0,0,0,0,0,4.426,4.4261,4.4288,4.429,4.4398,4.4398,4.454,4.4542,0,0,0,0,0,0,0,0,0,0,0,4.426,4.4261,4.4263,4.4291,4.4398,4.4398,4.454,4.4457,0,0,0,0,0,0,0,0,0,0,4.4351,4.4331,4.4261,4.4263,4.4291,4.4397,4.4398,4.4453,4.4462,4.4495,0,4.4526,0,4.4537,4.4552,4.4553,0,0,0,4.4287,4.4323,4.4348,4.4263,4.4292,4.4397,4.4348,4.4458,4.4468,4.4507,4.4528,4.4533,4.4539,4.4553,4.4554,4.4759,4.476,0,0,4.4281,4.4282,4.4341,4.4355,4.4341,4.4345,4.4352,4.4464,4.4486,4.4529,4.4536,4.4541,4.4554,4.4555,4.4758,4.4759,0,0,0,4.4266,4.4278,4.43,4.435,4.4369,4.4348,4.4356,4.4481,4.4489,4.4538,4.4543,4.4555,4.4557,4.4757,4.4758,4.4817,0,0,0,4.4262,4.4269,4.4298,4.4299,4.4367,4.4427,4.4371,4.4481,4.4494,4.4542,4.4555,4.4558,4.4755,4.4758,4.4813,4.4845,0,0,0,4.4252,4.4268,4.4285,4.4299,4.4345,4.4425,4.4439,4.4484,4.4497,4.4553,4.4559,4.4754,4.4757,4.4809,4.4838,4.4901,0,0,0,4.424,4.4334,4.4286,4.4393,4.4345,4.4461,4.4438,4.4524,4.4578,4.4556,4.4756,4.4758,4.4808,4.4835,4.4896,4.4954,4.4978,0,0,4.4359,4.4348,4.4411,4.4371,4.4497,4.4444,4.4578,4.4626,4.4629,4.4715,4.472,4.4814,4.4838,4.49,4.5109,4.5128,0,0,0,4.4449,4.4494,4.4527,4.4581,4.4621,4.4658,4.4686,4.4704,4.4778,4.4674,4.4853,4.4867,4.4903,4.493,4.4947,4.4978,4.4771,4.477,4.477,4.4619,4.462,4.4724,4.4739,4.479,4.4819,4.4861,4.489,4.4874,4.4916,4.4942,4.5069,4.5102,4.5114,4.5147,4.4972,4.4972,4.4972,4.4972,4.4794,4.4859,4.4838,4.4932,4.4932,4.501,4.5041,4.5028,4.51,4.5049,4.5081,4.5026,4.5135,4.5163,4.4977,4.4976,4.4975,4.4975,4.4975,4.4907,4.4938,4.496,4.5038,4.5098,4.5108,4.518,4.5177,4.5174,4.5205,4.5233,4.5232,4.5232,4.5219,4.5219,4.522,4.522,4.522,4.522,4.5016,4.5038,4.51,4.5152,4.5186,4.5231,4.5262,4.5295,4.5331,4.5323,4.5323,4.5304,4.5145,4.5105,4.5227,4.5226,4.5225,4.5225,4.5224,4.5196,4.5155,4.525,4.5285,4.5347,4.5407,4.5402,4.5471,4.5498,4.5534,4.5508,4.539,4.5378,4.5365,4.5333,4.5506,4.5506,4.5506,4.5506,4.5292,4.5286,4.5384,4.544,4.5495,4.5501,4.5608,4.5633,4.5651,4.5668,4.5642,4.5599,4.5585,4.5582,4.5564,4.5534,4.5755,4.5755,4.5755,4.5404,4.5403,4.5496,4.5516,4.5563,4.5604,4.5706,4.5771,4.5783,4.5765,4.5682,4.5671,4.5601,4.5577,4.5559,4.5531,4.5476,0,0]}]]